Time,TemperatureF,DewpointF,PressureIn,WindDirection,WindDirectionDegrees,WindSpeedMPH,WindSpeedGustMPH,Humidity,HourlyPrecipIn,Conditions,Clouds,dailyrainin,SoftwareType,DateUTC
2013-02-11 00:01:00,31.3,24.0,29.64,WNW,288,21.0,31.0,75,0.00,,,0.00,weatherlink.com 1.10,2013-02-11 06:01:00,
2013-02-11 00:16:00,31.1,24.0,29.65,WSW,258,13.0,31.0,74,0.00,,,0.00,weatherlink.com 1.10,2013-02-11 06:16:00,
2013-02-11 00:31:00,31.1,24.0,29.66,West,259,17.0,32.0,74,0.00,,,0.00,weatherlink.com 1.10,2013-02-11 06:31:00,
2013-02-11 00:46:00,31.0,24.0,29.67,WSW,258,12.0,33.0,74,0.00,,,0.00,weatherlink.com 1.10,2013-02-11 06:46:00,
2013-02-11 01:01:00,30.9,24.0,29.68,WSW,254,9.0,33.0,75,0.00,,,0.00,weatherlink.com 1.10,2013-02-11 07:01:00,
2013-02-11 01:16:00,30.9,24.0,29.69,West,261,17.0,31.0,76,0.00,,,0.00,weatherlink.com 1.10,2013-02-11 07:16:00,
2013-02-11 01:31:00,30.8,24.0,29.70,WSW,257,18.0,40.0,76,0.00,,,0.00,weatherlink.com 1.10,2013-02-11 07:31:00,
2013-02-11 01:46:00,30.7,24.0,29.70,West,273,27.0,41.0,76,0.00,,,0.00,weatherlink.com 1.10,2013-02-11 07:46:00,
2013-02-11 02:01:00,30.7,24.0,29.72,WSW,253,14.0,36.0,75,0.00,,,0.00,weatherlink.com 1.10,2013-02-11 08:01:00,
2013-02-11 02:17:00,30.6,24.0,29.73,West,270,31.0,37.0,75,0.00,,,0.00,weatherlink.com 1.10,2013-02-11 08:17:00,
2013-02-11 02:32:00,30.6,24.0,29.74,West,269,16.0,25.0,76,0.00,,,0.00,weatherlink.com 1.10,2013-02-11 08:32:00,
2013-02-11 02:47:00,30.6,24.0,29.75,West,265,24.0,32.0,76,0.00,,,0.00,weatherlink.com 1.10,2013-02-11 08:47:00,
2013-02-11 03:02:00,30.6,24.0,29.76,West,266,16.0,38.0,76,0.00,,,0.00,weatherlink.com 1.10,2013-02-11 09:02:00,
2013-02-11 03:17:00,30.5,24.0,29.77,West,279,18.0,38.0,76,0.00,,,0.00,weatherlink.com 1.10,2013-02-11 09:17:00,
2013-02-11 03:32:00,30.3,24.0,29.78,WSW,257,14.0,33.0,76,0.00,,,0.00,weatherlink.com 1.10,2013-02-11 09:32:00,
2013-02-11 03:47:00,30.2,24.0,29.79,WNW,294,10.0,26.0,76,0.00,,,0.00,weatherlink.com 1.10,2013-02-11 09:47:00,
2013-02-11 04:02:00,30.1,23.0,29.80,West,274,22.0,31.0,76,0.00,,,0.00,weatherlink.com 1.10,2013-02-11 10:02:00,
2013-02-11 04:17:00,30.1,23.0,29.81,WNW,298,35.0,43.0,74,0.00,,,0.00,weatherlink.com 1.10,2013-02-11 10:17:00,
2013-02-11 04:32:00,30.0,23.0,29.82,WSW,246,15.0,36.0,74,0.00,,,0.00,weatherlink.com 1.10,2013-02-11 10:32:00,
2013-02-11 04:47:00,29.9,23.0,29.83,WNW,283,6.0,29.0,74,0.00,,,0.00,weatherlink.com 1.10,2013-02-11 10:47:00,
2013-02-11 05:02:00,29.8,22.0,29.83,West,281,9.0,37.0,74,0.00,,,0.00,weatherlink.com 1.10,2013-02-11 11:02:00,
2013-02-11 05:17:00,29.7,23.0,29.84,WNW,284,30.0,35.0,75,0.00,,,0.00,weatherlink.com 1.10,2013-02-11 11:17:00,
2013-02-11 05:32:00,29.6,23.0,29.85,WNW,295,23.0,30.0,75,0.00,,,0.00,weatherlink.com 1.10,2013-02-11 11:32:00,
2013-02-11 05:47:00,29.2,22.0,29.86,West,268,36.0,42.0,73,0.00,,,0.00,weatherlink.com 1.10,2013-02-11 11:47:00,
2013-02-11 06:02:00,28.9,22.0,29.87,West,271,17.0,32.0,75,0.00,,,0.00,weatherlink.com 1.10,2013-02-11 12:02:00,
2013-02-11 06:17:00,28.7,22.0,29.88,West,275,18.0,29.0,76,0.00,,,0.00,weatherlink.com 1.10,2013-02-11 12:17:00,
2013-02-11 06:32:00,28.4,22.0,29.89,West,268,8.0,29.0,76,0.00,,,0.00,weatherlink.com 1.10,2013-02-11 12:32:00,
2013-02-11 06:47:00,28.2,22.0,29.90,West,265,16.0,31.0,77,0.00,,,0.00,weatherlink.com 1.10,2013-02-11 12:47:00,
2013-02-11 07:02:00,27.9,22.0,29.91,West,269,19.0,32.0,77,0.00,,,0.00,weatherlink.com 1.10,2013-02-11 13:02:00,
2013-02-11 07:17:00,27.6,22.0,29.92,West,271,22.0,30.0,78,0.00,,,0.00,weatherlink.com 1.10,2013-02-11 13:17:00,
2013-02-11 07:32:00,27.5,22.0,29.93,West,279,18.0,28.0,78,0.00,,,0.00,weatherlink.com 1.10,2013-02-11 13:32:00,
2013-02-11 07:47:00,27.5,22.0,29.93,West,274,11.0,20.0,78,0.00,,,0.00,weatherlink.com 1.10,2013-02-11 13:47:00,
2013-02-11 08:03:00,27.8,22.0,29.95,West,270,15.0,25.0,78,0.00,,,0.00,weatherlink.com 1.10,2013-02-11 14:03:00,
2013-02-11 08:18:00,28.0,22.0,29.96,West,267,15.0,24.0,78,0.00,,,0.00,weatherlink.com 1.10,2013-02-11 14:18:00,
2013-02-11 08:33:00,28.4,22.0,29.96,West,276,12.0,25.0,78,0.00,,,0.00,weatherlink.com 1.10,2013-02-11 14:33:00,
2013-02-11 08:48:00,29.0,23.0,29.97,West,267,16.0,26.0,77,0.00,,,0.00,weatherlink.com 1.10,2013-02-11 14:48:00,
2013-02-11 09:03:00,29.1,22.0,29.98,West,281,14.0,31.0,76,0.00,,,0.00,weatherlink.com 1.10,2013-02-11 15:03:00,
2013-02-11 09:18:00,29.0,22.0,29.99,West,278,20.0,33.0,75,0.00,,,0.00,weatherlink.com 1.10,2013-02-11 15:18:00,
2013-02-11 09:33:00,29.1,22.0,30.00,West,275,13.0,26.0,76,0.00,,,0.00,weatherlink.com 1.10,2013-02-11 15:33:00,
2013-02-11 09:48:00,29.7,22.0,30.01,West,271,19.0,35.0,74,0.00,,,0.00,weatherlink.com 1.10,2013-02-11 15:48:00,
2013-02-11 10:03:00,30.2,22.0,30.02,NW,306,19.0,35.0,71,0.00,,,0.00,weatherlink.com 1.10,2013-02-11 16:03:00,
2013-02-11 10:18:00,30.2,22.0,30.02,WNW,294,17.0,34.0,70,0.00,,,0.00,weatherlink.com 1.10,2013-02-11 16:18:00,
2013-02-11 10:33:00,30.3,22.0,30.03,WNW,282,16.0,33.0,71,0.00,,,0.00,weatherlink.com 1.10,2013-02-11 16:33:00,
2013-02-11 10:48:00,30.5,23.0,30.04,WNW,290,24.0,24.0,74,0.00,,,0.00,weatherlink.com 1.10,2013-02-11 16:48:00,
2013-02-11 11:03:00,30.6,24.0,30.04,West,269,10.0,21.0,75,0.00,,,0.00,weatherlink.com 1.10,2013-02-11 17:03:00,
2013-02-11 11:18:00,31.1,24.0,30.05,West,265,2.0,23.0,75,0.00,,,0.00,weatherlink.com 1.10,2013-02-11 17:18:00,
2013-02-11 11:33:00,31.0,24.0,30.05,West,281,18.0,22.0,76,0.00,,,0.00,weatherlink.com 1.10,2013-02-11 17:33:00,
2013-02-11 11:48:00,30.6,24.0,30.06,WNW,285,12.0,26.0,75,0.00,,,0.00,weatherlink.com 1.10,2013-02-11 17:48:00,
2013-02-11 12:03:00,30.7,24.0,30.06,WNW,294,18.0,20.0,76,0.00,,,0.00,weatherlink.com 1.10,2013-02-11 18:03:00,
2013-02-11 12:18:00,30.7,24.0,30.06,WNW,282,21.0,23.0,77,0.00,,,0.00,weatherlink.com 1.10,2013-02-11 18:18:00,
2013-02-11 12:33:00,30.6,24.0,30.06,West,275,21.0,30.0,76,0.00,,,0.00,weatherlink.com 1.10,2013-02-11 18:33:00,
2013-02-11 12:48:00,31.1,24.0,30.06,WNW,285,17.0,27.0,76,0.00,,,0.00,weatherlink.com 1.10,2013-02-11 18:48:00,
2013-02-11 13:03:00,31.6,24.0,30.06,WNW,294,21.0,27.0,72,0.00,,,0.00,weatherlink.com 1.10,2013-02-11 19:03:00,
2013-02-11 13:18:00,31.3,24.0,30.07,WNW,288,12.0,22.0,73,0.00,,,0.00,weatherlink.com 1.10,2013-02-11 19:18:00,
2013-02-11 13:33:00,31.6,24.0,30.07,West,269,14.0,28.0,73,0.00,,,0.00,weatherlink.com 1.10,2013-02-11 19:33:00,
2013-02-11 13:48:00,32.2,24.0,30.07,West,273,18.0,25.0,73,0.00,,,0.00,weatherlink.com 1.10,2013-02-11 19:48:00,
2013-02-11 14:03:00,32.5,25.0,30.07,West,267,10.0,25.0,73,0.00,,,0.00,weatherlink.com 1.10,2013-02-11 20:03:00,
2013-02-11 14:18:00,32.8,25.0,30.08,WNW,289,9.0,23.0,72,0.00,,,0.00,weatherlink.com 1.10,2013-02-11 20:18:00,
2013-02-11 14:33:00,33.0,25.0,30.08,West,280,16.0,18.0,72,0.00,,,0.00,weatherlink.com 1.10,2013-02-11 20:33:00,
2013-02-11 14:48:00,32.3,24.0,30.08,West,275,4.0,23.0,72,0.00,,,0.00,weatherlink.com 1.10,2013-02-11 20:48:00,
2013-02-11 15:03:00,32.4,25.0,30.09,West,268,12.0,20.0,73,0.00,,,0.00,weatherlink.com 1.10,2013-02-11 21:03:00,
2013-02-11 15:18:00,32.4,25.0,30.09,West,263,12.0,18.0,73,0.00,,,0.00,weatherlink.com 1.10,2013-02-11 21:18:00,
2013-02-11 15:33:00,31.9,24.0,30.09,WNW,290,11.0,23.0,73,0.00,,,0.00,weatherlink.com 1.10,2013-02-11 21:33:00,
2013-02-11 15:48:00,31.7,24.0,30.10,West,268,9.0,21.0,74,0.00,,,0.00,weatherlink.com 1.10,2013-02-11 21:48:00,
2013-02-11 16:03:00,31.6,25.0,30.10,WNW,292,12.0,21.0,75,0.00,,,0.00,weatherlink.com 1.10,2013-02-11 22:03:00,
2013-02-11 16:18:00,31.6,25.0,30.10,West,279,19.0,20.0,75,0.00,,,0.00,weatherlink.com 1.10,2013-02-11 22:18:00,
2013-02-11 16:33:00,31.3,24.0,30.10,WNW,286,21.0,21.0,75,0.00,,,0.00,weatherlink.com 1.10,2013-02-11 22:33:00,
2013-02-11 16:48:00,31.1,24.0,30.11,West,275,8.0,20.0,75,0.00,,,0.00,weatherlink.com 1.10,2013-02-11 22:48:00,
2013-02-11 17:03:00,30.8,24.0,30.11,West,266,6.0,23.0,75,0.00,,,0.00,weatherlink.com 1.10,2013-02-11 23:03:00,
2013-02-11 17:18:00,30.6,24.0,30.11,West,272,2.0,16.0,76,0.00,,,0.00,weatherlink.com 1.10,2013-02-11 23:18:00,
2013-02-11 17:33:00,30.4,24.0,30.12,WNW,290,6.0,17.0,76,0.00,,,0.00,weatherlink.com 1.10,2013-02-11 23:33:00,
2013-02-11 17:48:00,30.1,24.0,30.12,WNW,288,4.0,20.0,77,0.00,,,0.00,weatherlink.com 1.10,2013-02-11 23:48:00,
2013-02-11 18:03:00,29.9,24.0,30.13,WNW,283,8.0,19.0,77,0.00,,,0.00,weatherlink.com 1.10,2013-02-12 00:03:00,
2013-02-11 18:18:00,29.8,24.0,30.13,West,280,5.0,12.0,78,0.00,,,0.00,weatherlink.com 1.10,2013-02-12 00:18:00,
2013-02-11 18:33:00,29.7,23.0,30.14,WNW,286,12.0,20.0,77,0.00,,,0.00,weatherlink.com 1.10,2013-02-12 00:33:00,
2013-02-11 18:48:00,29.6,23.0,30.14,WNW,294,3.0,16.0,77,0.00,,,0.00,weatherlink.com 1.10,2013-02-12 00:48:00,
2013-02-11 19:03:00,29.4,23.0,30.13,NW,305,2.0,13.0,78,0.00,,,0.00,weatherlink.com 1.10,2013-02-12 01:03:00,
2013-02-11 19:18:00,29.2,23.0,30.14,WNW,292,2.0,14.0,78,0.00,,,0.00,weatherlink.com 1.10,2013-02-12 01:18:00,
2013-02-11 19:34:00,29.1,23.0,30.14,WNW,289,11.0,20.0,79,0.00,,,0.00,weatherlink.com 1.10,2013-02-12 01:34:00,
2013-02-11 19:49:00,28.9,23.0,30.14,WNW,282,6.0,14.0,79,0.00,,,0.00,weatherlink.com 1.10,2013-02-12 01:49:00,
2013-02-11 20:04:00,28.9,23.0,30.15,WNW,286,9.0,14.0,79,0.00,,,0.00,weatherlink.com 1.10,2013-02-12 02:04:00,
2013-02-11 20:19:00,28.8,23.0,30.15,WNW,288,1.0,12.0,80,0.00,,,0.00,weatherlink.com 1.10,2013-02-12 02:19:00,
2013-02-11 20:34:00,28.7,23.0,30.14,West,277,4.0,17.0,80,0.00,,,0.00,weatherlink.com 1.10,2013-02-12 02:34:00,
2013-02-11 20:49:00,28.7,23.0,30.14,WNW,286,9.0,13.0,80,0.00,,,0.00,weatherlink.com 1.10,2013-02-12 02:49:00,
2013-02-11 21:04:00,28.5,23.0,30.14,WNW,296,5.0,15.0,80,0.00,,,0.00,weatherlink.com 1.10,2013-02-12 03:04:00,
2013-02-11 21:19:00,28.3,23.0,30.15,WNW,290,3.0,13.0,81,0.00,,,0.00,weatherlink.com 1.10,2013-02-12 03:19:00,
2013-02-11 21:34:00,28.1,23.0,30.15,WNW,292,11.0,17.0,81,0.00,,,0.00,weatherlink.com 1.10,2013-02-12 03:34:00,
2013-02-11 21:49:00,27.6,22.0,30.15,WNW,301,5.0,11.0,80,0.00,,,0.00,weatherlink.com 1.10,2013-02-12 03:49:00,
2013-02-11 22:04:00,27.4,22.0,30.15,West,281,4.0,16.0,80,0.00,,,0.00,weatherlink.com 1.10,2013-02-12 04:04:00,
2013-02-11 22:19:00,27.3,22.0,30.15,West,272,3.0,10.0,81,0.00,,,0.00,weatherlink.com 1.10,2013-02-12 04:19:00,
2013-02-11 22:34:00,27.4,22.0,30.16,West,277,2.0,9.0,81,0.00,,,0.00,weatherlink.com 1.10,2013-02-12 04:34:00,
2013-02-11 22:49:00,27.2,22.0,30.16,WNW,287,0.0,15.0,81,0.00,,,0.00,weatherlink.com 1.10,2013-02-12 04:49:00,
2013-02-11 23:04:00,27.2,22.0,30.16,WNW,287,0.0,7.0,81,0.00,,,0.00,weatherlink.com 1.10,2013-02-12 05:04:00,
2013-02-11 23:19:00,27.2,22.0,30.16,WNW,286,5.0,11.0,81,0.00,,,0.00,weatherlink.com 1.10,2013-02-12 05:19:00,
2013-02-11 23:34:00,27.3,22.0,30.16,WNW,286,0.0,6.0,81,0.00,,,0.00,weatherlink.com 1.10,2013-02-12 05:34:00,
2013-02-11 23:49:00,27.3,23.0,30.17,WNW,286,4.0,8.0,82,0.00,,,0.00,weatherlink.com 1.10,2013-02-12 05:49:00,